PDT,Max TemperatureF,Mean TemperatureF,Min TemperatureF,Max Dew PointF,MeanDew PointF,Min DewpointF,Max Humidity, Mean Humidity, Min Humidity, Max Sea Level PressureIn, Mean Sea Level PressureIn, Min Sea Level PressureIn, Max VisibilityMiles, Mean VisibilityMiles, Min VisibilityMiles, Max Wind SpeedMPH, Mean Wind SpeedMPH, Max Gust SpeedMPH,PrecipitationIn, CloudCover, Events, WindDirDegrees
2013-10-1,78,66,55,60,56,51,93,73,45,29.94,29.90,29.87,10,8,4,12,5,,0.00,3,,175
2013-10-2,75,67,61,56,55,52,78,69,51,29.96,29.92,29.88,10,10,9,9,5,,0.00,5,,191
2013-10-3,73,66,61,56,54,53,78,69,55,29.93,29.89,29.84,10,10,10,25,4,,0.00,7,,232
2013-10-4,79,66,54,58,54,50,87,67,42,30.01,29.93,29.88,10,10,9,9,3,,0.00,1,,292
2013-10-5,90,69,48,49,22,-2,86,25,4,30.08,30.03,30.01,10,10,10,10,4,,0.00,0,,2
2013-10-6,89,72,55,46,21,10,44,17,5,30.05,30.00,29.95,10,10,10,13,6,,0.00,1,,4
2013-10-7,87,70,55,53,36,11,90,40,6,29.96,29.93,29.91,10,10,9,12,4,,0.00,3,,341
2013-10-8,72,62,53,56,53,49,97,73,53,29.94,29.89,29.84,10,9,4,12,4,18,0.02,4,,206
2013-10-9,66,60,55,55,50,45,94,72,48,29.84,29.79,29.75,10,8,2,17,9,24,0.20,7,Rain,230
2013-10-10,68,58,51,50,48,46,89,71,50,30.00,29.94,29.82,10,10,10,10,4,,0.00,4,,345
2013-10-11,71,59,48,56,50,45,94,73,45,30.03,29.98,29.93,10,10,8,14,6,17,0.00,1,,2
2013-10-12,71,64,57,56,54,53,89,76,57,29.96,29.94,29.90,10,10,7,10,4,20,0.00,3,,345
2013-10-13,70,60,50,54,50,47,89,70,47,30.01,29.97,29.93,10,10,10,9,2,17,0.00,3,,221
2013-10-14,78,62,46,58,51,45,93,74,39,30.01,29.95,29.89,10,9,7,10,5,,0.01,0,,355
2013-10-15,84,68,52,55,40,27,90,46,13,29.95,29.91,29.86,10,10,6,12,5,,0.00,0,,17
2013-10-16,86,70,55,39,25,16,51,22,8,30.04,29.99,29.94,10,10,10,12,5,,0.00,0,,9
2013-10-17,84,68,53,45,30,19,61,31,9,30.02,29.97,29.93,10,10,7,12,6,,0.00,0,,31
2013-10-18,79,65,51,56,41,31,83,49,19,29.99,29.96,29.92,10,10,10,12,6,16,0.00,0,,14
2013-10-19,84,66,50,56,44,26,93,59,14,30.00,29.97,29.95,10,10,7,9,5,,0.00,1,,1
2013-10-20,75,58,43,56,50,39,96,78,46,29.98,29.94,29.91,10,8,0,9,3,,0.00,2,Fog,322
2013-10-21,73,63,53,56,53,47,100,81,38,29.99,29.95,29.91,10,5,0,9,2,,0.00,3,Fog,316
2013-10-22,71,63,55,56,55,54,97,83,57,30.00,29.96,29.91,10,4,0,9,2,,0.01,5,Fog,324
2013-10-23,66,63,60,55,54,52,83,73,61,29.96,29.93,29.91,10,9,5,10,3,,0.00,7,,304
2013-10-24,66,60,53,54,52,50,89,71,59,30.05,29.99,29.94,10,10,9,10,5,,0.00,6,,318
2013-10-25,70,63,53,56,54,51,93,73,58,30.10,30.05,29.99,10,8,4,10,4,,0.00,4,,324
2013-10-26,73,64,57,57,56,53,97,83,51,30.08,30.02,29.96,8,3,0,8,3,,0.00,6,Fog,313
2013-10-27,69,62,55,57,55,53,100,83,63,29.96,29.91,29.84,10,5,0,8,3,,0.00,5,Fog,280
2013-10-28,66,60,57,56,53,48,94,79,56,29.93,29.89,29.85,10,9,3,9,5,22,0.07,6,Rain,229
2013-10-29,66,58,51,54,49,44,90,75,47,30.00,29.96,29.92,10,9,4,9,5,,0.17,5,Rain,347
2013-10-30,66,57,48,52,48,44,93,75,45,30.05,30.01,29.98,10,10,5,12,4,17,0.01,2,Rain,9
2013-10-31,75,62,48,50,43,35,89,61,23,30.06,30.02,29.98,10,10,10,9,6,,0.00,0,,22